EHI
14 8 3 1 0 0 0 0 0 0 0 0 0 0 0 0 0 1 0 2 4 5 4 5 6 6 6 3 1 0 0 0 0 0 0 1 2 1 0 0 0 0 0 0 0 0 0 0 0
6 4 1 0 0 0 0 0 0 0 0 0 0 0 0 1 1 1 1 2 4 4 3 4 6 7 6 3 1 0 0 0 0 0 1 2 2 1 0 0 0 0 0 0 0 0 0 0 0
1 1 1 0 0 0 0 0 0 0 0 0 0 0 1 2 3 3 2 3 3 3 3 4 6 6 5 4 2 1 0 0 0 0 1 2 2 1 0 0 0 0 0 0 0 0 0 0 0
1 1 1 0 0 0 0 0 0 0 0 0 0 0 1 3 5 6 5 4 3 3 3 5 7 6 4 3 3 2 1 0 0 0 0 1 1 0 0 0 0 0 0 0 0 0 0 0 0
1 1 1 1 0 0 0 0 0 0 0 1 2 1 2 6 11 11 8 4 3 3 3 5 7 6 4 3 3 3 2 0 0 0 0 0 0 0 0 0 0 0 0 0 0 0 0 0 0
2 2 2 1 0 0 0 0 1 1 2 3 3 2 3 9 16 16 9 4 3 3 2 3 5 6 5 4 3 3 1 1 1 1 0 0 0 0 0 0 0 0 0 0 0 0 0 0 0
2 2 1 0 0 0 0 0 1 2 3 4 4 3 4 10 19 20 12 5 3 2 1 1 2 3 4 4 3 3 2 2 2 2 1 1 1 0 0 0 0 0 0 0 0 0 0 0 0
1 1 0 0 0 0 0 0 1 2 3 4 3 3 5 11 20 23 16 8 4 3 1 0 0 0 2 3 3 3 2 2 3 3 3 3 2 0 0 0 0 0 0 0 0 0 0 0 0
1 0 0 0 0 0 0 0 0 1 2 3 3 4 6 13 23 27 21 13 8 6 3 1 0 0 1 2 3 3 2 1 2 3 4 3 1 0 0 0 0 0 0 0 0 0 0 0 0
1 0 0 0 0 0 1 1 0 1 2 4 6 7 9 15 24 29 27 21 16 10 5 1 0 0 1 2 2 2 1 0 1 1 1 1 0 0 0 0 0 0 0 0 0 0 0 0 0
0 0 0 0 0 0 1 2 1 1 2 5 9 10 10 14 19 23 27 28 24 18 10 4 2 1 0 1 1 1 0 0 0 0 0 0 0 0 1 0 0 0 0 0 0 0 0 0 0
0 0 0 0 0 0 1 1 1 2 5 8 10 11 10 11 13 16 22 28 29 25 18 10 5 2 1 1 0 0 0 0 0 0 0 0 0 0 0 0 0 0 0 0 0 0 0 0 0
0 0 0 0 0 0 0 1 2 5 10 14 13 10 10 10 12 13 18 25 29 30 25 17 10 6 4 3 2 1 0 0 0 1 1 1 0 0 0 0 0 0 0 0 0 0 0 0 0
0 0 0 0 0 0 0 1 4 10 17 19 15 12 13 16 17 16 18 24 30 32 28 22 17 14 10 5 3 2 1 1 1 1 2 1 0 0 0 0 0 0 0 0 0 0 0 0 0
0 0 0 0 0 0 0 1 6 15 22 20 16 16 20 25 25 22 22 27 33 34 30 25 23 19 12 6 2 3 2 2 1 1 1 1 1 0 0 0 0 0 0 0 0 0 0 0 0
0 0 0 0 0 0 0 0 6 18 25 22 19 21 26 30 31 29 30 34 38 38 33 28 25 19 12 6 3 3 4 3 4 3 2 2 2 1 0 0 0 0 0 0 0 0 0 0 0
0 0 0 0 0 0 0 0 4 15 25 26 24 25 28 31 31 34 38 43 43 40 35 32 27 19 12 8 6 5 5 7 7 6 4 4 4 3 2 1 1 0 0 0 0 0 0 0 0
0 0 0 0 0 0 0 1 3 10 20 27 28 28 31 32 32 37 45 50 48 42 38 35 30 22 15 10 7 5 7 8 7 5 4 4 5 4 4 3 2 1 0 0 0 0 0 0 0
0 0 0 0 0 0 0 1 2 6 15 25 29 32 35 36 38 45 53 56 54 49 43 39 34 26 18 12 8 6 6 7 6 4 3 3 5 5 4 3 2 1 0 0 0 0 0 0 0
0 0 0 0 0 0 0 0 1 4 10 21 30 35 40 43 48 54 60 63 64 61 53 46 40 30 21 15 12 10 7 5 4 4 2 3 5 4 3 1 1 0 0 0 0 0 0 0 0
0 0 0 0 0 0 0 0 1 3 7 15 26 37 45 48 53 59 63 66 70 69 64 56 47 36 25 18 17 17 14 8 4 3 2 3 4 3 1 0 0 0 0 0 0 0 0 0 0
0 0 0 0 0 0 0 0 1 3 6 11 23 37 46 49 53 58 63 67 71 73 70 62 53 43 31 23 22 23 21 14 6 3 3 3 3 2 1 0 0 0 0 0 0 0 0 0 1
0 0 0 0 0 0 0 0 1 2 5 11 23 37 46 50 53 58 62 66 71 75 72 64 55 47 36 28 24 25 24 18 10 5 4 3 3 1 1 1 0 0 0 0 1 1 0 0 1
0 0 0 0 0 0 0 0 0 1 5 14 25 38 47 54 57 59 61 65 70 75 73 65 58 51 41 32 26 25 24 20 14 9 6 4 2 1 1 1 0 0 0 1 2 1 0 0 1
0 0 0 0 0 0 0 0 0 1 5 14 25 36 48 57 59 57 58 62 68 72 71 65 61 56 45 36 29 24 21 19 16 12 7 4 2 1 1 1 0 0 1 2 2 1 1 0 0
0 0 0 0 0 0 0 0 0 2 6 14 23 34 46 53 54 53 55 60 65 68 68 66 63 58 49 41 33 24 19 17 18 14 8 4 2 1 0 0 0 0 1 3 4 3 2 1 0
0 0 0 0 0 0 0 1 2 5 11 18 26 35 41 45 48 50 52 58 63 65 65 65 64 59 52 46 38 28 21 19 19 16 11 6 4 3 2 2 1 2 3 4 5 5 3 2 1
0 0 0 0 0 0 0 0 2 8 14 21 29 36 38 41 47 51 52 55 60 60 60 62 63 61 55 50 44 33 25 21 20 18 14 10 7 6 7 6 5 5 5 6 6 5 4 3 3
0 0 0 0 0 0 0 0 2 8 15 22 29 33 34 39 47 52 52 54 57 58 59 61 64 62 58 55 49 38 28 23 22 21 16 11 9 10 11 10 8 7 6 6 6 5 4 3 3
0 0 0 0 0 0 0 0 2 9 16 22 29 32 32 37 45 51 52 52 55 59 60 62 64 63 59 56 51 40 30 25 25 23 17 12 11 12 12 11 8 7 6 6 6 6 4 3 3
Wind_Speed
7 6 3 1 5 5 6 6 9 10 8 9 11 11 10 7 6 7 4 12 12 9 7 10 12 13 13 13 13 13 14 14 13 14 14 14 14 14 14 13 13 13 13 13 12 12 12 12 12
5 5 2 3 6 5 5 7 12 12 12 13 13 13 11 9 9 11 7 11 12 10 7 9 13 12 13 13 13 13 13 13 13 13 13 13 13 14 14 13 13 12 12 12 11 11 11 11 11
5 4 3 4 4 6 6 9 13 12 11 11 8 7 7 8 10 8 9 15 11 9 7 9 14 13 13 13 12 13 13 13 13 12 13 13 13 13 13 13 12 12 12 11 10 10 10 10 10
3 2 4 5 5 5 9 10 14 13 9 9 10 8 5 7 8 12 16 15 13 8 6 9 14 13 13 13 12 12 12 12 12 12 12 12 12 12 12 12 12 11 11 10 10 9 9 9 8
2 4 5 5 5 6 9 13 13 11 7 10 12 10 6 6 16 19 17 15 13 9 6 8 14 14 13 13 12 12 12 12 11 11 11 11 11 11 12 12 11 11 10 10 9 8 8 8 7
3 4 5 5 6 7 8 13 14 15 15 13 12 10 5 10 16 16 15 13 12 11 7 8 13 14 13 13 12 12 12 11 11 11 10 10 10 11 11 11 11 10 10 9 8 8 7 6 6
4 4 5 7 8 7 8 9 12 13 13 10 10 8 5 8 13 15 13 12 11 10 8 5 6 9 12 12 12 11 11 11 10 10 10 10 10 10 10 10 10 9 9 9 8 7 6 5 5
5 5 4 5 8 6 7 7 10 14 10 13 9 8 8 9 12 13 12 11 10 8 7 6 5 5 5 6 11 11 11 10 10 10 10 10 9 9 10 8 8 9 9 8 7 6 5 4 4
5 6 4 6 8 5 7 11 9 9 11 7 5 8 12 15 16 14 11 8 8 9 6 6 6 5 5 5 8 9 9 9 9 7 9 7 3 3 4 7 9 9 8 7 7 6 4 3 2
6 5 7 7 9 9 9 13 10 9 11 10 11 12 14 15 15 15 13 11 10 10 8 7 7 6 5 5 5 3 4 4 3 3 4 3 2 2 4 6 8 8 7 6 6 5 3 2 0
6 6 5 6 9 10 10 9 8 12 10 14 17 16 14 13 12 13 12 11 11 10 9 8 8 7 6 4 4 2 2 2 3 3 3 3 2 2 2 2 3 3 3 2 2 1 1 1 1
7 5 6 7 8 9 8 8 7 9 12 16 16 16 14 13 11 12 11 10 10 10 9 8 8 6 6 5 4 4 3 3 3 3 4 3 2 2 2 1 1 1 1 1 1 1 1 1 2
5 4 5 7 9 8 9 8 8 8 14 16 15 14 13 12 10 9 10 10 10 9 8 8 8 7 6 5 4 4 4 4 4 3 4 4 3 3 3 2 2 2 2 2 1 1 1 1 2
2 4 6 6 7 6 10 7 7 10 15 16 15 13 12 12 12 10 10 10 10 9 8 7 8 7 6 5 4 4 4 4 3 3 4 5 4 4 4 3 2 2 2 2 2 2 2 2 1
3 5 4 3 5 4 9 5 8 14 15 15 14 12 11 11 12 12 12 11 11 10 9 8 8 7 6 5 4 4 4 4 3 3 4 5 4 4 4 3 2 2 2 2 1 2 1 1 1
4 4 1 3 4 4 8 5 7 14 15 13 13 12 11 10 12 12 12 11 10 10 9 8 8 7 6 4 4 3 3 4 3 3 3 5 5 5 4 3 3 3 2 2 2 1 1 0 1
4 1 2 3 4 5 5 5 8 12 14 12 12 12 11 10 10 10 12 12 12 11 10 8 7 7 6 4 3 3 3 3 3 3 3 4 5 5 4 3 3 2 2 2 2 2 2 1 1
4 2 2 5 5 6 4 5 9 12 13 13 12 11 11 13 12 12 12 12 11 10 9 8 7 7 5 4 3 2 2 2 2 3 4 4 4 4 4 3 3 3 2 1 1 2 2 2 2
5 3 4 4 5 6 5 6 8 10 11 12 10 10 11 11 10 10 11 12 10 8 8 9 8 6 5 3 3 2 2 2 2 3 4 4 4 4 4 2 2 2 3 3 3 2 2 1 1
3 2 2 1 3 5 4 3 5 8 13 15 15 14 12 10 9 10 10 10 11 10 9 9 8 7 6 4 3 3 3 2 2 3 3 4 4 4 4 4 3 3 3 3 3 2 2 1 2
2 3 3 3 2 3 5 2 2 3 5 8 11 12 13 15 15 13 12 11 11 11 11 10 9 8 7 5 3 2 2 1 1 1 2 3 4 4 4 4 4 3 3 3 3 3 4 2 1
4 4 3 3 4 1 3 2 6 4 3 7 10 10 12 12 12 12 12 12 12 11 10 9 9 8 7 6 5 5 4 3 3 3 2 3 3 4 4 4 4 4 3 3 4 3 3 3 2
5 3 2 3 4 2 2 3 7 2 4 7 10 12 13 13 14 14 14 13 12 11 10 8 8 7 7 6 6 6 4 3 2 2 3 2 2 3 3 4 4 3 3 3 3 3 3 3 3
2 4 7 6 6 1 3 4 6 6 10 9 9 11 12 13 13 12 11 10 9 9 9 8 8 7 7 7 6 6 6 5 4 3 3 3 2 2 3 3 3 3 3 3 3 3 3 3 3
4 7 5 5 5 4 3 3 8 9 9 10 12 12 12 12 13 12 11 11 11 11 10 9 9 7 7 7 6 6 6 6 6 5 4 4 2 2 3 2 3 3 3 3 3 3 2 3 3
3 10 8 5 4 4 3 3 7 6 5 7 9 11 11 12 11 13 13 13 12 12 11 10 10 8 8 8 7 6 6 4 4 4 4 4 3 3 3 3 3 3 3 3 3 2 3 2 3
3 4 9 8 2 0 4 3 5 3 3 4 7 9 11 11 12 12 12 12 12 12 12 12 11 9 9 8 7 6 6 5 4 4 3 3 3 3 4 4 3 3 3 2 2 2 2 2 2
7 7 7 6 5 1 3 3 4 3 3 4 7 9 10 10 11 11 11 11 11 11 10 10 10 10 9 8 7 6 6 6 5 4 4 3 3 3 3 3 3 3 2 2 2 2 2 1 1
0 2 6 5 6 7 3 7 7 9 6 6 7 9 11 12 12 11 9 9 10 9 10 10 9 8 8 8 7 6 6 5 5 5 5 4 4 3 3 4 3 3 2 2 2 2 2 1 1
4 4 7 5 4 5 5 8 6 6 6 6 6 8 9 10 9 9 9 9 8 9 9 9 9 9 8 8 7 6 6 6 5 5 5 5 4 4 4 3 3 3 2 2 3 2 2 2 1
Wind_Direction
172 170 160 105 57 56 83 89 97 84 67 67 79 83 81 68 101 129 151 136 133 132 127 121 117 114 112 112 112 111 108 107 106 106 107 108 109 109 112 112 115 116 116 116 117 119 121 121 120
170 165 144 66 83 86 84 104 99 101 116 105 87 85 79 73 90 116 130 138 135 133 129 127 123 120 118 116 113 112 113 111 111 111 111 112 112 113 114 116 118 120 119 119 121 122 122 124 124
181 181 111 79 100 126 122 114 110 106 108 102 95 75 78 107 117 129 145 142 134 130 131 134 128 126 123 121 118 116 117 115 114 114 114 116 117 116 117 119 121 122 122 122 123 123 123 125 127
155 92 58 81 112 136 130 125 117 109 90 85 95 81 78 115 124 135 141 139 132 131 132 138 133 131 128 127 125 123 121 119 118 118 117 118 119 120 120 122 123 124 123 122 123 123 123 123 126
95 77 66 80 107 112 117 120 118 108 93 94 97 100 86 95 121 133 139 137 135 137 138 140 137 136 133 130 128 126 125 124 123 123 123 124 123 124 125 126 127 126 124 124 124 125 126 125 125
63 75 82 95 103 104 112 118 110 106 112 111 108 105 100 122 129 138 139 139 140 142 142 142 141 139 136 134 132 131 130 128 126 126 126 129 131 130 129 129 130 130 128 128 130 132 132 131 129
116 102 120 121 109 109 123 127 123 127 128 128 126 106 119 137 141 139 138 137 139 141 141 138 143 141 141 139 137 136 135 134 133 132 132 134 136 138 136 135 136 137 136 136 137 139 138 135 132
142 104 96 111 117 125 133 118 134 132 122 132 131 126 150 156 141 134 134 135 137 141 144 141 143 140 139 141 143 142 143 143 142 139 138 140 138 139 141 142 144 145 146 145 145 145 145 143 144
106 90 125 146 134 142 127 108 114 111 121 133 110 128 147 142 134 131 130 133 144 149 155 154 154 151 148 153 153 148 148 149 146 144 144 138 125 126 142 149 151 151 152 155 156 158 160 163 172
107 124 173 165 141 142 127 124 125 112 109 106 108 118 135 138 138 140 146 153 156 159 168 169 166 166 166 164 145 146 148 146 143 150 144 131 136 151 152 157 161 162 164 167 168 169 171 171 173
117 136 151 136 137 134 127 128 122 124 132 144 143 145 148 146 146 149 156 159 161 162 166 170 172 171 168 155 154 157 149 153 160 171 166 150 140 138 140 146 162 164 165 166 170 175 179 175 187
107 128 135 139 130 126 134 134 128 137 157 155 151 151 151 154 157 157 157 159 156 157 165 168 169 165 164 155 163 164 164 170 175 183 174 156 147 144 151 162 166 164 165 189 212 204 210 213 218
103 134 131 134 125 129 126 132 130 136 143 147 149 151 157 158 159 160 156 154 152 156 162 164 163 157 152 148 166 165 172 177 177 173 175 169 162 160 169 180 183 188 189 189 192 207 223 218 218
140 123 120 126 119 125 128 130 118 144 145 150 156 163 166 161 158 153 153 154 155 156 157 156 156 154 148 151 159 163 174 176 169 174 181 174 165 164 168 177 188 193 197 191 185 192 201 205 190
75 79 76 122 121 131 116 113 148 153 151 157 166 171 169 164 161 163 164 161 158 156 156 158 157 152 148 153 162 161 171 167 167 177 178 172 166 167 168 173 185 196 194 184 177 182 170 177 167
43 73 104 239 137 149 118 161 172 158 156 165 172 173 170 171 170 168 164 160 157 155 156 163 160 152 153 154 154 153 161 159 165 171 170 175 176 173 168 173 190 192 177 166 166 161 139 146 179
16 104 213 236 187 157 132 172 179 167 162 170 176 176 172 173 174 171 167 163 162 161 159 161 155 158 158 152 144 143 151 160 163 160 167 178 179 174 166 177 190 175 164 177 183 157 155 166 208
256 233 234 218 201 158 160 194 177 174 173 177 180 178 175 178 181 175 169 166 164 162 160 158 157 163 155 138 122 116 138 163 164 168 180 180 180 175 164 174 186 173 162 182 181 172 179 175 186
219 226 246 232 180 147 172 189 183 177 177 179 182 182 183 184 178 169 169 165 161 161 159 160 161 167 157 144 148 152 173 175 179 193 193 184 186 176 164 178 178 173 178 196 190 172 180 199 159
229 237 265 292 144 134 148 187 191 185 190 187 184 183 181 173 167 170 169 168 169 170 168 166 170 170 169 169 166 162 163 180 187 195 194 190 183 179 178 178 184 185 184 194 192 173 167 208 164
272 192 205 182 61 71 105 352 273 227 201 195 191 183 177 177 175 174 172 174 172 175 175 174 174 171 172 166 147 127 106 90 117 185 210 208 189 188 186 183 183 187 180 190 200 183 175 196 217
264 244 181 142 101 287 133 172 268 231 227 200 189 182 182 181 174 173 173 175 179 180 175 169 170 170 172 166 163 165 172 186 203 193 197 209 198 192 190 184 186 188 186 193 207 194 184 173 203
223 231 136 138 122 50 19 127 267 221 212 211 191 185 183 181 177 178 179 180 179 174 171 169 167 170 172 171 171 170 181 189 188 182 189 204 203 196 189 184 182 184 191 197 200 193 190 183 190
198 37 27 52 73 54 241 153 255 227 206 201 193 184 181 177 176 178 177 170 168 167 168 168 168 174 173 172 172 173 180 181 176 190 190 200 201 211 205 186 180 186 195 200 200 195 193 194 197
80 80 32 6 15 257 252 162 236 237 208 188 180 181 175 171 172 171 170 169 170 170 171 171 171 176 177 175 178 182 185 186 191 195 194 190 191 206 218 203 189 192 203 202 194 190 201 196 200
176 133 152 187 213 268 313 224 255 250 205 177 173 173 169 169 172 177 177 173 173 174 173 172 172 176 177 179 183 185 186 188 198 197 189 192 199 207 204 198 197 198 197 196 189 194 211 206 207
160 166 166 141 155 25 300 302 329 31 101 136 156 161 171 173 174 180 180 175 174 174 176 175 176 178 182 182 180 184 185 186 191 191 189 195 204 207 196 191 195 191 186 195 189 194 207 195 204
168 154 94 108 135 207 301 274 228 220 180 160 165 171 175 170 170 177 178 175 174 174 174 175 177 180 182 182 183 185 186 187 183 176 182 194 203 210 190 189 189 191 193 193 182 184 190 181 213
209 110 112 123 148 150 206 264 226 200 190 180 181 175 171 171 174 177 174 170 168 170 171 174 178 178 180 182 183 182 185 185 182 186 186 191 194 197 193 187 186 188 188 181 165 174 156 170 214
179 177 143 150 203 157 161 259 255 188 172 161 168 168 167 171 173 169 165 163 164 168 172 175 181 183 186 183 181 184 184 181 183 190 194 188 188 190 190 183 183 189 173 159 154 166 153 163 195